COSMOS 1275 DEB, 14408

Orbit data source: Space-Track

COSMOS 1275 DEB, 14408 is space debris in LEO originally from a launch on Thu, 04 Jun 1981 UTC launched from the Plesetsk Missile And Space Complex (PKMTR). Debris objects in space refer to the collection of defunct objects orbiting the Earth. Examples of debris include non-operational satellites, rocket bodies, and fragments generated from explosions, collisions, or faulty payload assembly.

Loading next visibility...
Identifier
14408, 1981-053JD
Orbit
LEO
Country
Flag of CISCIS
Related business
Manufacturer
Unknown
Mission
Spacecraft
Bus & Motor
Unknown
Mass
Unknown
Launch date (UTC)
1981-06-04 (45 years ago)
Launch vehicle
Unknown
Launch site
Plesetsk Missile And Space Complex (PKMTR)
Object type
Payload
Rocket body
Debris
Shape & HBR
Unknown shape, 0.1 m
Radar Cross Section
Small (<0.1 m²)

Expand to show TLE details & history
Last TLE update: 1 week ago

TLE from 1 week ago
0 COSMOS 1275 DEB
1 14408U 81053JD  26149.09822807  .00000859  00000-0  86754-3 0  9997
2 14408  82.9623 186.6555 0116912  83.0312 307.2538 13.73140706700841
Epoch: 2026-05-29T02:21Z
TLE epoch observation values (Epoch: 2026-05-29T02:21:26.905Z)
Latitude
29.01439°
Longitude
-91.43446°
Altitude
940.409 km
Speed
7.41 km/s
True Right ascension
12h 42m 14s
True Declination
28° 52' 21"
Sunlit
Object was in daylight at epoch
Visualization orbit readout
Latitude
Unknown
Longitude
Unknown
Altitude
Unknown
Speed
Unknown
Apparent Right ascension
Unknown
Apparent Declination
Unknown
Sunlit
N/A
Visualization observer readout
Local Sidereal Time
12:41:37
Azimuth
Unknown
Elevation
Unknown
Doppler factor
Unknown
Orbital elements
Apogee altitude
1,071.556 km
Perigee altitude
899.378 km
Semi-major axis
7,363.604 km
Eccentricity
0.01169
Inclination
82.9623°
RAAN
186.6555°
Arg. of periapsis
83.0312°
True anomaly
306.17799°
Mean anomaly
307.2538°
Eccentric anomaly
306.71684°
Mean motion
3.43485 °/min
Orbital period
104.81 mins
BSTAR
0.00086754
Loading maneuver chart data...
Computing Atmospheric mass density...

Documentation

Showing up to 5 results
|